BAW658 EGLL-LGKF

Flight info

Callsign BAW658
Flight time 2h 57m
Altitude 35000
Route DET1J DET L6 DVR L9 KONAN UL607 KOK DCT SISGA DCT KOMOB DCT EDISA DCT PICWI DCT UTABA DCT BEMKI DCT ELMEM DCT DIRAB DCT VESAL DCT BABAG/N0445F370 DCT PEVAL DCT IPKIS DCT AIOSA DCT ENOXA DCT KAPPO DCT LUPAL DCT LATAN UM872 ASTUS DCT
Aircraft A320/M-SDE3FGIJ1KRWXY/SB1

Departure

Time 2026-05-09 09:46
Airport London Heathrow Airport (EGLL)

Arrival

Time 2026-05-09 12:43
Airport Kefallinia Airport (LGKF)
Time Latitude Longitude Altitude Speed Heading
2026-05-09 09:02 51.47405 -0.48831 87 ft 0 kts 179°
2026-05-09 09:37 51.47420 -0.48832 88 ft 4 kts 179°
2026-05-09 09:38 51.47441 -0.48832 87 ft 3 kts 179°
2026-05-09 09:38 51.47467 -0.48835 87 ft 4 kts 161°
2026-05-09 09:38 51.47484 -0.48857 90 ft 2 kts 105°
2026-05-09 09:38 51.47488 -0.48879 88 ft 0 kts 103°
2026-05-09 09:42 51.47487 -0.48867 87 ft 2 kts 97°
2026-05-09 09:42 51.47485 -0.48821 87 ft 5 kts 90°
2026-05-09 09:42 51.47485 -0.48724 89 ft 12 kts 90°
2026-05-09 09:42 51.47486 -0.48583 89 ft 13 kts 89°
2026-05-09 09:43 51.47487 -0.48426 89 ft 14 kts 93°
2026-05-09 09:43 51.47405 -0.48362 87 ft 15 kts 179°
2026-05-09 09:43 51.47295 -0.48360 87 ft 17 kts 180°
2026-05-09 09:43 51.47172 -0.48360 87 ft 18 kts 180°
2026-05-09 09:44 51.47038 -0.48359 87 ft 20 kts 180°
2026-05-09 09:44 51.46893 -0.48358 87 ft 22 kts 179°
2026-05-09 09:44 51.46755 -0.48372 89 ft 15 kts 212°
2026-05-09 09:44 51.46678 -0.48468 89 ft 15 kts 187°
2026-05-09 09:45 51.46567 -0.48469 88 ft 16 kts 180°
2026-05-09 09:45 51.46481 -0.48392 89 ft 16 kts 102°
2026-05-09 09:45 51.46479 -0.48192 88 ft 25 kts 90°
2026-05-09 09:45 51.46480 -0.47559 85 ft 91 kts 90°
2026-05-09 09:46 51.46486 -0.46244 89 ft 143 kts 90°
2026-05-09 09:46 51.46492 -0.44460 393 ft 164 kts 89°
2026-05-09 09:46 51.46513 -0.42614 1154 ft 168 kts 92°
2026-05-09 09:46 51.46133 -0.40812 1624 ft 183 kts 125°
2026-05-09 09:47 51.45328 -0.39069 1897 ft 206 kts 122°
2026-05-09 09:47 51.44522 -0.37000 2282 ft 232 kts 120°
2026-05-09 09:47 51.43718 -0.34642 2939 ft 246 kts 109°
2026-05-09 09:47 51.43329 -0.31949 3760 ft 251 kts 101°
2026-05-09 09:48 51.42947 -0.29199 4662 ft 254 kts 102°
2026-05-09 09:48 51.42544 -0.26424 5472 ft 257 kts 103°
2026-05-09 09:48 51.42144 -0.23613 6283 ft 261 kts 102°
2026-05-09 09:48 51.41744 -0.20743 6999 ft 267 kts 102°
2026-05-09 09:49 51.41339 -0.17814 7788 ft 272 kts 102°
2026-05-09 09:49 51.40929 -0.14820 8553 ft 277 kts 102°
2026-05-09 09:49 51.40516 -0.11816 9266 ft 282 kts 102°
2026-05-09 09:49 51.40091 -0.08725 9977 ft 287 kts 102°
2026-05-09 09:50 51.39652 -0.05550 10414 ft 301 kts 102°
2026-05-09 09:50 51.39184 -0.02150 10563 ft 325 kts 102°
2026-05-09 09:50 51.38721 0.01508 10753 ft 343 kts 101°
2026-05-09 09:50 51.38269 0.05310 11262 ft 351 kts 101°
2026-05-09 09:51 51.37823 0.09169 11868 ft 355 kts 101°
2026-05-09 09:51 51.37368 0.13069 12455 ft 359 kts 101°
2026-05-09 09:51 51.36900 0.17011 13061 ft 363 kts 101°
2026-05-09 09:51 51.36418 0.20996 13684 ft 367 kts 101°
2026-05-09 09:52 51.35925 0.25029 14254 ft 371 kts 101°
2026-05-09 09:52 51.35426 0.29100 14806 ft 374 kts 102°
2026-05-09 09:52 51.34921 0.33193 15455 ft 377 kts 102°
2026-05-09 09:52 51.34409 0.37321 16003 ft 379 kts 102°
2026-05-09 09:53 51.33893 0.41468 16523 ft 382 kts 102°
2026-05-09 09:53 51.33379 0.45574 17046 ft 385 kts 102°
2026-05-09 09:53 51.32854 0.49779 17590 ft 388 kts 102°
2026-05-09 09:53 51.32323 0.54023 18139 ft 390 kts 102°
2026-05-09 09:54 51.31790 0.58289 18665 ft 393 kts 103°
2026-05-09 09:54 51.31281 0.62336 19098 ft 395 kts 103°
2026-05-09 09:54 51.30737 0.66652 19584 ft 397 kts 103°
2026-05-09 09:54 51.30191 0.70981 20081 ft 398 kts 103°
2026-05-09 09:55 51.29644 0.75316 20581 ft 400 kts 103°
2026-05-09 09:55 51.29107 0.79557 21023 ft 402 kts 103°
2026-05-09 09:55 51.28549 0.83935 21468 ft 404 kts 104°
2026-05-09 09:55 51.27983 0.88345 21905 ft 406 kts 104°
2026-05-09 09:56 51.27412 0.92769 22312 ft 408 kts 104°
2026-05-09 09:56 51.26838 0.97204 22746 ft 410 kts 104°
2026-05-09 09:56 51.26258 1.01683 23176 ft 412 kts 104°
2026-05-09 09:56 51.25675 1.06169 23601 ft 414 kts 104°
2026-05-09 09:57 51.25086 1.10684 23974 ft 416 kts 104°
2026-05-09 09:57 51.24499 1.15185 24330 ft 418 kts 104°
2026-05-09 09:57 51.23911 1.19678 24671 ft 420 kts 105°
2026-05-09 09:57 51.23312 1.24238 25018 ft 422 kts 105°
2026-05-09 09:58 51.22708 1.28828 25351 ft 423 kts 105°
2026-05-09 09:58 51.22098 1.33428 25687 ft 425 kts 105°
2026-05-09 09:58 51.21486 1.38052 26019 ft 427 kts 105°
2026-05-09 09:58 51.20869 1.42692 26340 ft 428 kts 105°
2026-05-09 09:59 51.20248 1.47351 26669 ft 430 kts 105°
2026-05-09 09:59 51.19623 1.52023 26991 ft 432 kts 105°
2026-05-09 09:59 51.18991 1.56725 27322 ft 434 kts 105°
2026-05-09 09:59 51.18356 1.61440 27642 ft 436 kts 105°
2026-05-09 10:00 51.17719 1.66149 28075 ft 435 kts 105°
2026-05-09 10:00 51.17296 1.69267 28388 ft 434 kts 105°
2026-05-09 10:00 51.16658 1.73953 28859 ft 432 kts 105°
2026-05-09 10:00 51.15804 1.80196 29472 ft 430 kts 106°
2026-05-09 10:01 51.15383 1.83277 29769 ft 430 kts 106°
2026-05-09 10:01 51.14749 1.87920 30219 ft 429 kts 106°
2026-05-09 10:01 51.14110 1.92554 30589 ft 428 kts 106°
2026-05-09 10:01 51.13467 1.97183 30966 ft 427 kts 106°
2026-05-09 10:02 51.12972 2.01830 31341 ft 430 kts 98°
2026-05-09 10:02 51.12723 2.06588 31715 ft 429 kts 98°
2026-05-09 10:02 51.12478 2.11321 32110 ft 429 kts 98°
2026-05-09 10:02 51.12234 2.16016 32483 ft 428 kts 98°
2026-05-09 10:03 51.11982 2.20730 32876 ft 427 kts 98°
2026-05-09 10:03 51.11724 2.25435 33255 ft 426 kts 98°
2026-05-09 10:03 51.11466 2.30126 33641 ft 426 kts 98°
2026-05-09 10:03 51.11207 2.34821 34000 ft 425 kts 98°
2026-05-09 10:04 51.10945 2.39502 34313 ft 425 kts 98°
2026-05-09 10:04 51.10690 2.44038 34580 ft 425 kts 98°
2026-05-09 10:04 51.10422 2.48721 34844 ft 425 kts 98°
2026-05-09 10:04 51.10150 2.53414 35057 ft 426 kts 98°
2026-05-09 10:05 51.09876 2.58116 35122 ft 430 kts 98°
2026-05-09 10:05 51.08580 2.67442 35133 ft 436 kts 114°
2026-05-09 10:06 51.05862 2.76078 35134 ft 438 kts 120°
2026-05-09 10:06 51.03017 2.84639 35134 ft 439 kts 120°
2026-05-09 10:07 51.00163 2.93218 35127 ft 439 kts 120°
2026-05-09 10:07 50.97303 3.01798 35124 ft 440 kts 120°
2026-05-09 10:08 50.94431 3.10369 35117 ft 441 kts 120°
2026-05-09 10:08 50.91617 3.18729 35113 ft 441 kts 120°
2026-05-09 10:09 50.88720 3.27296 35110 ft 441 kts 120°
2026-05-09 10:09 50.85831 3.35824 35116 ft 441 kts 120°
2026-05-09 10:10 50.82926 3.44397 35108 ft 442 kts 120°
2026-05-09 10:10 50.80028 3.52921 35111 ft 442 kts 120°
2026-05-09 10:11 50.77099 3.61469 35107 ft 442 kts 120°
2026-05-09 10:11 50.74160 3.70010 35116 ft 443 kts 120°
2026-05-09 10:12 50.71219 3.78551 35103 ft 443 kts 120°
2026-05-09 10:12 50.68319 3.86945 35099 ft 443 kts 120°
2026-05-09 10:13 50.65356 3.95477 35112 ft 444 kts 120°
2026-05-09 10:13 50.62385 4.04009 35118 ft 445 kts 120°
2026-05-09 10:14 50.59397 4.12540 35118 ft 445 kts 120°
2026-05-09 10:14 50.56400 4.21040 35123 ft 446 kts 121°
2026-05-09 10:15 50.53383 4.29562 35120 ft 446 kts 121°
2026-05-09 10:15 50.50359 4.38062 35123 ft 446 kts 121°
2026-05-09 10:16 50.47337 4.46565 35113 ft 446 kts 121°
2026-05-09 10:16 50.44304 4.55066 35119 ft 446 kts 121°
2026-05-09 10:17 50.41265 4.63558 35106 ft 447 kts 121°
2026-05-09 10:17 50.38306 4.71793 35115 ft 447 kts 121°
2026-05-09 10:18 50.35249 4.80268 35107 ft 447 kts 121°
2026-05-09 10:18 50.32185 4.88745 35109 ft 447 kts 121°
2026-05-09 10:19 50.29112 4.97212 35108 ft 448 kts 121°
2026-05-09 10:19 50.26037 5.05652 35110 ft 448 kts 121°
2026-05-09 10:20 50.22937 5.14119 35105 ft 449 kts 121°
2026-05-09 10:20 50.19851 5.22521 35109 ft 449 kts 121°
2026-05-09 10:21 50.16718 5.31036 35105 ft 449 kts 121°
2026-05-09 10:21 50.13631 5.39392 35110 ft 450 kts 121°
2026-05-09 10:22 50.10498 5.47829 35102 ft 450 kts 121°
2026-05-09 10:22 50.07357 5.56246 35104 ft 450 kts 121°
2026-05-09 10:23 50.04196 5.64666 35097 ft 451 kts 121°
2026-05-09 10:23 50.01120 5.72845 35103 ft 451 kts 121°
2026-05-09 10:24 49.97939 5.81259 35104 ft 451 kts 122°
2026-05-09 10:24 49.94752 5.89674 35110 ft 452 kts 122°
2026-05-09 10:25 49.91566 5.98070 35105 ft 452 kts 122°
2026-05-09 10:25 49.88420 6.06342 35110 ft 452 kts 122°
2026-05-09 10:26 49.85218 6.14720 35112 ft 452 kts 122°
2026-05-09 10:26 49.82116 6.22812 35115 ft 453 kts 122°
2026-05-09 10:27 49.78892 6.31194 35118 ft 453 kts 122°
2026-05-09 10:27 49.75677 6.39515 35126 ft 453 kts 122°
2026-05-09 10:28 49.72439 6.47874 35114 ft 453 kts 122°
2026-05-09 10:28 49.69197 6.56232 35112 ft 454 kts 122°
2026-05-09 10:29 49.65941 6.64583 35101 ft 454 kts 122°
2026-05-09 10:29 49.62700 6.72893 35097 ft 454 kts 122°
2026-05-09 10:30 49.59437 6.81232 35093 ft 454 kts 122°
2026-05-09 10:30 49.56170 6.89521 35095 ft 455 kts 122°
2026-05-09 10:31 49.52880 6.97836 35097 ft 455 kts 122°
2026-05-09 10:31 49.49596 7.06133 35109 ft 456 kts 122°
2026-05-09 10:32 49.46294 7.14472 35109 ft 456 kts 122°
2026-05-09 10:32 49.42981 7.22786 35115 ft 456 kts 122°
2026-05-09 10:33 49.39665 7.31090 35108 ft 456 kts 122°
2026-05-09 10:33 49.36343 7.39391 35111 ft 456 kts 122°
2026-05-09 10:34 49.33015 7.47682 35111 ft 457 kts 122°
2026-05-09 10:34 49.27992 7.60083 35114 ft 457 kts 123°
2026-05-09 10:35 49.24642 7.68349 35106 ft 457 kts 122°
2026-05-09 10:35 49.21267 7.76602 35110 ft 457 kts 127°
2026-05-09 10:36 49.16878 7.83554 35107 ft 455 kts 137°
2026-05-09 10:36 49.12280 7.90192 35103 ft 455 kts 138°
2026-05-09 10:37 49.07660 7.96815 35102 ft 456 kts 138°
2026-05-09 10:37 49.03040 8.03444 35108 ft 456 kts 138°
2026-05-09 10:38 48.98442 8.10052 35112 ft 456 kts 138°
2026-05-09 10:38 48.93801 8.16703 35120 ft 456 kts 138°
2026-05-09 10:39 48.89180 8.23309 35118 ft 456 kts 138°
2026-05-09 10:39 48.84579 8.29963 35122 ft 457 kts 137°
2026-05-09 10:40 48.80066 8.36493 35118 ft 457 kts 137°
2026-05-09 10:40 48.75451 8.43132 35113 ft 457 kts 138°
2026-05-09 10:41 48.70839 8.49752 35104 ft 457 kts 138°
2026-05-09 10:41 48.66254 8.56312 35101 ft 457 kts 138°
2026-05-09 10:42 48.61634 8.62897 35099 ft 457 kts 138°
2026-05-09 10:42 48.57007 8.69480 35098 ft 457 kts 138°
2026-05-09 10:43 48.52375 8.76042 35104 ft 457 kts 139°
2026-05-09 10:43 48.47738 8.82601 35105 ft 457 kts 139°
2026-05-09 10:44 48.43132 8.89118 35103 ft 457 kts 139°
2026-05-09 10:44 48.38462 8.95700 35105 ft 457 kts 139°
2026-05-09 10:46 48.26827 9.11991 35106 ft 457 kts 139°
2026-05-09 10:46 48.22961 9.17380 35109 ft 458 kts 140°
2026-05-09 10:47 48.18286 9.23887 35113 ft 458 kts 140°
2026-05-09 10:47 48.13636 9.30337 35112 ft 458 kts 140°
2026-05-09 10:48 48.08963 9.36818 35119 ft 458 kts 140°
2026-05-09 10:48 48.04282 9.43284 35122 ft 458 kts 140°
2026-05-09 10:49 47.99602 9.49730 35117 ft 458 kts 141°
2026-05-09 10:49 47.94923 9.56167 35121 ft 457 kts 141°
2026-05-09 10:50 47.90233 9.62587 35120 ft 457 kts 141°
2026-05-09 10:50 47.85552 9.68990 35123 ft 457 kts 141°
2026-05-09 10:51 47.80871 9.75375 35123 ft 456 kts 141°
2026-05-09 10:51 47.76226 9.81690 35124 ft 456 kts 142°
2026-05-09 10:52 47.71560 9.88019 35123 ft 455 kts 142°
2026-05-09 10:52 47.66865 9.94360 35130 ft 455 kts 142°
2026-05-09 10:53 47.62178 10.00677 35130 ft 455 kts 142°
2026-05-09 10:53 47.57497 10.06986 35134 ft 454 kts 142°
2026-05-09 10:54 47.52824 10.13278 35132 ft 454 kts 142°
2026-05-09 10:54 47.48282 10.19369 35135 ft 453 kts 143°
2026-05-09 10:55 47.43607 10.25617 35133 ft 453 kts 143°
2026-05-09 10:55 47.38971 10.31793 35140 ft 452 kts 143°
2026-05-09 10:56 47.34339 10.37948 35131 ft 451 kts 143°
2026-05-09 10:56 47.29641 10.44179 35145 ft 451 kts 144°
2026-05-09 10:57 47.25004 10.50293 35140 ft 450 kts 144°
2026-05-09 10:57 47.20391 10.56328 35138 ft 448 kts 144°
2026-05-09 10:58 47.15699 10.62365 35132 ft 448 kts 145°
2026-05-09 10:58 47.11011 10.68386 35133 ft 447 kts 145°
2026-05-09 10:59 47.06329 10.74403 35134 ft 447 kts 145°
2026-05-09 10:59 47.01652 10.80395 35135 ft 446 kts 145°
2026-05-09 11:00 46.96981 10.86366 35131 ft 446 kts 145°
2026-05-09 11:00 46.92309 10.92339 35145 ft 446 kts 145°
2026-05-09 11:01 46.87638 10.98291 35148 ft 445 kts 145°
2026-05-09 11:01 46.82969 11.04212 35150 ft 445 kts 145°
2026-05-09 11:02 46.78550 11.10633 35160 ft 450 kts 139°
2026-05-09 11:02 46.74304 11.17255 35158 ft 449 kts 139°
2026-05-09 11:03 46.70024 11.23901 35152 ft 450 kts 139°
2026-05-09 11:03 46.65741 11.30538 35134 ft 449 kts 139°
2026-05-09 11:04 46.61466 11.37155 35119 ft 449 kts 139°
2026-05-09 11:04 46.57180 11.43778 35122 ft 450 kts 139°
2026-05-09 11:05 46.52885 11.50402 35112 ft 450 kts 139°
2026-05-09 11:05 46.48574 11.57014 35104 ft 451 kts 139°
2026-05-09 11:06 46.44250 11.63618 35105 ft 451 kts 139°
2026-05-09 11:06 46.39924 11.70219 35099 ft 452 kts 139°
2026-05-09 11:07 46.35555 11.76734 35095 ft 451 kts 141°
2026-05-09 11:07 46.31117 11.83065 35095 ft 451 kts 141°
2026-05-09 11:08 46.26642 11.89421 35088 ft 451 kts 141°
2026-05-09 11:08 46.22185 11.95799 35082 ft 452 kts 141°
2026-05-09 11:09 46.17717 12.02197 35067 ft 451 kts 141°
2026-05-09 11:09 46.13255 12.08578 35080 ft 453 kts 141°
2026-05-09 11:10 46.08766 12.14968 35085 ft 454 kts 141°
2026-05-09 11:10 46.04268 12.21347 35090 ft 454 kts 141°
2026-05-09 11:11 45.99768 12.27718 35074 ft 454 kts 141°
2026-05-09 11:11 45.95261 12.34086 35074 ft 455 kts 141°
2026-05-09 11:12 45.90738 12.40459 35070 ft 455 kts 141°
2026-05-09 11:12 45.86205 12.46827 35067 ft 456 kts 141°
2026-05-09 11:13 45.81665 12.53191 35062 ft 457 kts 141°
2026-05-09 11:13 45.77183 12.59468 35062 ft 458 kts 141°
2026-05-09 11:14 45.72609 12.65845 35062 ft 459 kts 141°
2026-05-09 11:14 45.68081 12.72144 35065 ft 460 kts 141°
2026-05-09 11:15 45.63493 12.78527 35064 ft 461 kts 141°
2026-05-09 11:15 45.58921 12.84871 35070 ft 461 kts 141°
2026-05-09 11:16 45.54311 12.91232 35078 ft 462 kts 141°
2026-05-09 11:16 45.49693 12.97603 35081 ft 462 kts 141°
2026-05-09 11:17 45.45071 13.03957 35089 ft 462 kts 142°
2026-05-09 11:17 45.40433 13.10300 35085 ft 462 kts 142°
2026-05-09 11:18 45.35894 13.16804 35086 ft 465 kts 138°
2026-05-09 11:18 45.31597 13.23704 35086 ft 466 kts 139°
2026-05-09 11:19 45.26816 13.29783 35083 ft 460 kts 146°
2026-05-09 11:19 45.21832 13.35466 35083 ft 459 kts 147°
2026-05-09 11:20 45.16806 13.41079 35084 ft 460 kts 147°
2026-05-09 11:20 45.11788 13.46721 35083 ft 461 kts 147°
2026-05-09 11:21 45.06771 13.52394 35085 ft 462 kts 147°
2026-05-09 11:21 45.01747 13.58072 35082 ft 462 kts 147°
2026-05-09 11:22 44.96714 13.63730 35081 ft 463 kts 147°
2026-05-09 11:22 44.91666 13.69392 35078 ft 464 kts 147°
2026-05-09 11:23 44.86612 13.75055 35078 ft 464 kts 147°
2026-05-09 11:23 44.81548 13.80714 35078 ft 464 kts 147°
2026-05-09 11:24 44.76479 13.86354 35084 ft 465 kts 147°
2026-05-09 11:24 44.71409 13.91985 35090 ft 465 kts 147°
2026-05-09 11:25 44.66327 13.97626 35092 ft 465 kts 147°
2026-05-09 11:25 44.61285 14.03224 35094 ft 465 kts 147°
2026-05-09 11:26 44.56198 14.08841 35091 ft 465 kts 147°
2026-05-09 11:26 44.51130 14.14403 35087 ft 466 kts 147°
2026-05-09 11:27 44.46028 14.20005 35085 ft 466 kts 147°
2026-05-09 11:27 44.41031 14.25495 35078 ft 467 kts 147°
2026-05-09 11:28 44.35925 14.31110 35080 ft 468 kts 146°
2026-05-09 11:28 44.31012 14.37141 35081 ft 472 kts 142°
2026-05-09 11:29 44.26246 14.43459 35085 ft 473 kts 141°
2026-05-09 11:29 44.21446 14.49734 35087 ft 473 kts 142°
2026-05-09 11:30 44.16583 14.55904 35083 ft 473 kts 143°
2026-05-09 11:30 44.11685 14.62039 35092 ft 474 kts 143°
2026-05-09 11:31 44.06784 14.68184 35091 ft 475 kts 143°
2026-05-09 11:31 44.01876 14.74356 35089 ft 480 kts 144°
2026-05-09 11:32 43.96857 14.80659 35092 ft 494 kts 144°
2026-05-09 11:32 43.91676 14.87145 35101 ft 507 kts 143°
2026-05-09 11:33 43.86420 14.93715 35095 ft 510 kts 143°
2026-05-09 11:33 43.78514 15.03574 35095 ft 510 kts 144°
2026-05-09 11:34 43.74122 15.09024 35094 ft 510 kts 144°
2026-05-09 11:34 43.68841 15.15570 35089 ft 510 kts 144°
2026-05-09 11:35 43.63543 15.22108 35091 ft 511 kts 144°
2026-05-09 11:35 43.58355 15.28504 35090 ft 511 kts 144°
2026-05-09 11:36 43.53052 15.35014 35090 ft 511 kts 144°
2026-05-09 11:36 43.47739 15.41526 35105 ft 511 kts 144°
2026-05-09 11:37 43.42428 15.48033 35091 ft 511 kts 144°
2026-05-09 11:37 43.37187 15.54443 35102 ft 511 kts 144°
2026-05-09 11:38 43.31862 15.60927 35091 ft 511 kts 144°
2026-05-09 11:38 43.26531 15.67389 35095 ft 512 kts 144°
2026-05-09 11:39 43.21195 15.73848 35091 ft 512 kts 144°
2026-05-09 11:40 43.13182 15.83532 35088 ft 512 kts 144°
2026-05-09 11:40 43.07904 15.89899 35089 ft 512 kts 144°
2026-05-09 11:41 43.02548 15.96328 35091 ft 512 kts 144°
2026-05-09 11:41 42.97184 16.02755 35089 ft 513 kts 144°
2026-05-09 11:42 42.91818 16.09181 35092 ft 513 kts 144°
2026-05-09 11:42 42.86448 16.15586 35093 ft 513 kts 144°
2026-05-09 11:43 42.81070 16.21985 35094 ft 513 kts 144°
2026-05-09 11:43 42.75680 16.28376 35093 ft 513 kts 144°
2026-05-09 11:44 42.70290 16.34747 35094 ft 514 kts 144°
2026-05-09 11:44 42.64903 16.41115 35096 ft 514 kts 144°
2026-05-09 11:45 42.59506 16.47489 35096 ft 514 kts 144°
2026-05-09 11:45 42.54183 16.53751 35091 ft 514 kts 144°
2026-05-09 11:46 42.48774 16.60086 35093 ft 514 kts 144°
2026-05-09 11:46 42.43359 16.66422 35090 ft 514 kts 144°
2026-05-09 11:47 42.37954 16.72744 35096 ft 514 kts 144°
2026-05-09 11:47 42.32531 16.79060 35095 ft 514 kts 144°
2026-05-09 11:48 42.27102 16.85354 35093 ft 514 kts 144°
2026-05-09 11:48 42.21806 16.91483 35100 ft 514 kts 144°
2026-05-09 11:49 42.16379 16.97772 35098 ft 514 kts 144°
2026-05-09 11:49 42.10942 17.04047 35093 ft 515 kts 144°
2026-05-09 11:50 42.05501 17.10308 35095 ft 515 kts 144°
2026-05-09 11:50 42.00056 17.16569 35091 ft 515 kts 144°
2026-05-09 11:51 41.94583 17.22757 35092 ft 512 kts 149°
2026-05-09 11:51 41.88482 17.27375 35095 ft 498 kts 163°
2026-05-09 11:52 41.82113 17.31079 35093 ft 499 kts 163°
2026-05-09 11:52 41.75747 17.34800 35087 ft 499 kts 163°
2026-05-09 11:53 41.69379 17.38516 35090 ft 499 kts 163°
2026-05-09 11:53 41.63008 17.42214 35099 ft 499 kts 163°
2026-05-09 11:54 41.56631 17.45898 35100 ft 499 kts 163°
2026-05-09 11:54 41.50257 17.49571 35099 ft 499 kts 163°
2026-05-09 11:55 41.43884 17.53255 35100 ft 499 kts 163°
2026-05-09 11:56 41.24769 17.64242 35100 ft 499 kts 163°
2026-05-09 11:57 41.18397 17.67886 35104 ft 499 kts 163°
2026-05-09 11:57 41.12021 17.71523 35101 ft 499 kts 163°
2026-05-09 11:58 41.05647 17.75146 35104 ft 498 kts 164°
2026-05-09 11:58 40.99316 17.78731 35106 ft 498 kts 164°
2026-05-09 11:59 40.92944 17.82340 35111 ft 498 kts 164°
2026-05-09 11:59 40.86571 17.85948 35114 ft 498 kts 164°
2026-05-09 12:00 40.80199 17.89548 35116 ft 498 kts 164°
2026-05-09 12:00 40.73819 17.93133 35119 ft 498 kts 164°
2026-05-09 12:01 40.67434 17.96715 35119 ft 498 kts 164°
2026-05-09 12:01 40.61052 18.00297 35116 ft 499 kts 163°
2026-05-09 12:02 40.54769 18.04292 35115 ft 503 kts 159°
2026-05-09 12:02 40.48644 18.08654 35119 ft 505 kts 158°
2026-05-09 12:03 40.42477 18.13031 35118 ft 504 kts 159°
2026-05-09 12:03 40.36268 18.17277 35126 ft 503 kts 159°
2026-05-09 12:04 40.30036 18.21448 35125 ft 503 kts 159°
2026-05-09 12:04 40.23864 18.25586 35123 ft 503 kts 159°
2026-05-09 12:05 40.17648 18.29790 35120 ft 503 kts 159°
2026-05-09 12:05 40.11438 18.33988 35111 ft 502 kts 159°
2026-05-09 12:06 40.05221 18.38170 35110 ft 502 kts 159°
2026-05-09 12:06 39.99011 18.42340 35106 ft 502 kts 159°
2026-05-09 12:07 39.92788 18.46510 35107 ft 502 kts 159°
2026-05-09 12:07 39.86578 18.50663 35109 ft 503 kts 159°
2026-05-09 12:08 39.80354 18.54818 35110 ft 502 kts 159°
2026-05-09 12:08 39.74129 18.58950 35107 ft 502 kts 159°
2026-05-09 12:09 39.67940 18.63061 35108 ft 502 kts 159°
2026-05-09 12:09 39.61721 18.67201 35103 ft 502 kts 159°
2026-05-09 12:10 39.52396 18.73376 34747 ft 502 kts 160°
2026-05-09 12:10 39.49265 18.75497 33619 ft 516 kts 155°
2026-05-09 12:10 39.46277 18.78164 32777 ft 526 kts 144°
2026-05-09 12:11 39.43611 18.81380 32439 ft 521 kts 138°
2026-05-09 12:11 39.41084 18.84703 31960 ft 516 kts 138°
2026-05-09 12:11 39.38571 18.87988 31508 ft 510 kts 138°
2026-05-09 12:11 39.36084 18.91227 31033 ft 505 kts 138°
2026-05-09 12:12 39.33622 18.94428 30581 ft 500 kts 138°
2026-05-09 12:12 39.31186 18.97597 30108 ft 495 kts 138°
2026-05-09 12:12 39.28768 19.00744 29556 ft 491 kts 138°
2026-05-09 12:12 39.26378 19.03864 29008 ft 487 kts 138°
2026-05-09 12:13 39.24006 19.06960 28454 ft 483 kts 138°
2026-05-09 12:13 39.21657 19.10028 27913 ft 479 kts 138°
2026-05-09 12:13 39.19320 19.13074 27374 ft 475 kts 138°
2026-05-09 12:13 39.17000 19.16094 26859 ft 472 kts 138°
2026-05-09 12:14 39.14701 19.19080 26341 ft 468 kts 138°
2026-05-09 12:14 39.12410 19.22047 25845 ft 465 kts 138°
2026-05-09 12:14 39.10138 19.24993 25363 ft 462 kts 138°
2026-05-09 12:14 39.07881 19.27919 24901 ft 459 kts 138°
2026-05-09 12:15 39.05635 19.30825 24436 ft 456 kts 138°
2026-05-09 12:15 39.03403 19.33708 23990 ft 453 kts 138°
2026-05-09 12:15 39.01185 19.36568 23541 ft 451 kts 138°
2026-05-09 12:15 38.98978 19.39412 23048 ft 448 kts 138°
2026-05-09 12:16 38.96786 19.42236 22568 ft 445 kts 138°
2026-05-09 12:16 38.94609 19.45043 22081 ft 442 kts 138°
2026-05-09 12:16 38.92449 19.47827 21601 ft 439 kts 137°
2026-05-09 12:16 38.90302 19.50587 21122 ft 436 kts 137°
2026-05-09 12:17 38.88167 19.53334 20667 ft 433 kts 137°
2026-05-09 12:17 38.86049 19.56058 20190 ft 430 kts 137°
2026-05-09 12:17 38.83941 19.58765 19729 ft 427 kts 137°
2026-05-09 12:17 38.81847 19.61450 19271 ft 424 kts 137°
2026-05-09 12:18 38.79764 19.64114 18814 ft 422 kts 137°
2026-05-09 12:18 38.77693 19.66756 18364 ft 419 kts 136°
2026-05-09 12:18 38.75634 19.69380 17847 ft 416 kts 136°
2026-05-09 12:18 38.73593 19.71984 17383 ft 413 kts 137°
2026-05-09 12:19 38.72249 19.73699 17078 ft 410 kts 137°
2026-05-09 12:19 38.70238 19.76267 16622 ft 407 kts 137°
2026-05-09 12:19 38.68245 19.78814 16179 ft 403 kts 137°
2026-05-09 12:19 38.66270 19.81335 15721 ft 400 kts 137°
2026-05-09 12:20 38.64311 19.83831 15292 ft 396 kts 137°
2026-05-09 12:20 38.62360 19.86302 14859 ft 393 kts 138°
2026-05-09 12:20 38.60429 19.88746 14435 ft 389 kts 138°
2026-05-09 12:20 38.58511 19.91177 14019 ft 386 kts 138°
2026-05-09 12:21 38.56612 19.93585 13575 ft 383 kts 138°
2026-05-09 12:21 38.54728 19.95969 13123 ft 380 kts 138°
2026-05-09 12:21 38.52858 19.98333 12686 ft 377 kts 138°
2026-05-09 12:21 38.50999 20.00678 12257 ft 374 kts 138°
2026-05-09 12:22 38.49157 20.03001 11838 ft 371 kts 137°
2026-05-09 12:22 38.47330 20.05302 11433 ft 367 kts 138°
2026-05-09 12:22 38.45333 20.07265 11038 ft 359 kts 154°
2026-05-09 12:22 38.43067 20.08495 10634 ft 350 kts 169°
2026-05-09 12:23 38.40784 20.08961 10232 ft 342 kts 183°
2026-05-09 12:23 38.38455 20.08726 9953 ft 329 kts 197°
2026-05-09 12:23 38.36336 20.07873 9823 ft 311 kts 210°
2026-05-09 12:23 38.34401 20.06763 9689 ft 304 kts 201°
2026-05-09 12:24 38.32299 20.06577 9518 ft 307 kts 175°
2026-05-09 12:24 38.30275 20.07464 9220 ft 310 kts 155°
2026-05-09 12:24 38.28373 20.08754 8908 ft 309 kts 155°
2026-05-09 12:24 38.26475 20.10008 8609 ft 306 kts 155°
2026-05-09 12:25 38.24615 20.11216 8326 ft 303 kts 155°
2026-05-09 12:25 38.22740 20.12421 8036 ft 301 kts 155°
2026-05-09 12:25 38.20880 20.13607 7753 ft 298 kts 155°
2026-05-09 12:25 38.19035 20.14784 7460 ft 296 kts 155°
2026-05-09 12:26 38.17207 20.15951 7254 ft 290 kts 155°
2026-05-09 12:26 38.15431 20.17089 7132 ft 282 kts 154°
2026-05-09 12:26 38.13706 20.18198 7014 ft 274 kts 154°
2026-05-09 12:26 38.12024 20.19277 6893 ft 266 kts 154°
2026-05-09 12:27 38.10394 20.20322 6758 ft 259 kts 154°
2026-05-09 12:27 38.08801 20.21344 6559 ft 255 kts 154°
2026-05-09 12:27 38.07222 20.22356 6295 ft 253 kts 154°
2026-05-09 12:27 38.05661 20.23357 6024 ft 251 kts 154°
2026-05-09 12:28 38.04103 20.24355 5746 ft 249 kts 154°
2026-05-09 12:28 38.02576 20.25371 5476 ft 247 kts 147°
2026-05-09 12:28 38.01313 20.26823 5183 ft 245 kts 127°
2026-05-09 12:28 38.00485 20.28695 4889 ft 243 kts 109°
2026-05-09 12:29 38.00161 20.30780 4594 ft 240 kts 90°
2026-05-09 12:29 38.00358 20.32863 4279 ft 238 kts 72°
2026-05-09 12:29 38.01010 20.34784 3957 ft 236 kts 53°
2026-05-09 12:29 38.02286 20.35974 3680 ft 229 kts 13°
2026-05-09 12:30 38.03827 20.35818 3376 ft 226 kts 332°
2026-05-09 12:30 38.04963 20.34503 3048 ft 225 kts 299°
2026-05-09 12:30 38.05241 20.30673 3010 ft 231 kts 248°
2026-05-09 12:31 38.04559 20.28822 3007 ft 231 kts 245°
2026-05-09 12:31 38.03146 20.25153 3006 ft 232 kts 244°
2026-05-09 12:31 38.02237 20.23464 3011 ft 234 kts 226°
2026-05-09 12:32 38.00921 20.22265 3007 ft 235 kts 206°
2026-05-09 12:32 37.99353 20.21702 3006 ft 236 kts 185°
2026-05-09 12:32 37.97722 20.21853 3009 ft 237 kts 165°
2026-05-09 12:32 37.96227 20.22707 3009 ft 237 kts 145°
2026-05-09 12:33 37.95053 20.24165 3009 ft 237 kts 124°
2026-05-09 12:33 37.94349 20.26040 3008 ft 237 kts 104°
2026-05-09 12:33 37.94198 20.28105 3009 ft 236 kts 83°
2026-05-09 12:33 37.94608 20.30098 3010 ft 234 kts 66°
2026-05-09 12:34 37.95229 20.32011 3008 ft 235 kts 66°
2026-05-09 12:34 37.95772 20.33960 3004 ft 236 kts 76°
2026-05-09 12:34 37.95918 20.36028 3007 ft 237 kts 92°
2026-05-09 12:34 37.95618 20.38079 3007 ft 237 kts 108°
2026-05-09 12:35 37.94925 20.39968 3010 ft 237 kts 117°
2026-05-09 12:35 37.94248 20.41813 3000 ft 223 kts 111°
2026-05-09 12:35 37.93740 20.43598 3001 ft 208 kts 107°
2026-05-09 12:35 37.93373 20.45319 3022 ft 199 kts 102°
2026-05-09 12:36 37.93118 20.47024 3005 ft 196 kts 97°
2026-05-09 12:36 37.92967 20.48734 3004 ft 195 kts 93°
2026-05-09 12:36 37.92917 20.50444 3006 ft 194 kts 89°
2026-05-09 12:36 37.92969 20.52153 3007 ft 194 kts 84°
2026-05-09 12:37 37.93116 20.53849 3008 ft 194 kts 81°
2026-05-09 12:37 37.93352 20.55507 3005 ft 193 kts 76°
2026-05-09 12:37 37.93693 20.57177 3007 ft 193 kts 72°
2026-05-09 12:37 37.94121 20.58764 3006 ft 193 kts 68°
2026-05-09 12:38 37.94647 20.60328 3007 ft 193 kts 63°
2026-05-09 12:38 37.95436 20.61653 2996 ft 180 kts 36°
2026-05-09 12:38 37.96533 20.62292 3003 ft 172 kts
2026-05-09 12:38 37.97690 20.62252 3004 ft 168 kts 343°
2026-05-09 12:39 37.98723 20.61597 3007 ft 167 kts 324°
2026-05-09 12:39 37.99650 20.60773 3015 ft 156 kts 324°
2026-05-09 12:39 38.00518 20.60008 2857 ft 149 kts 325°
2026-05-09 12:39 38.01355 20.59271 2622 ft 145 kts 325°
2026-05-09 12:40 38.02177 20.58546 2396 ft 144 kts 325°
2026-05-09 12:40 38.02998 20.57819 2163 ft 143 kts 325°
2026-05-09 12:40 38.03812 20.57099 1954 ft 142 kts 324°
2026-05-09 12:40 38.04620 20.56383 1748 ft 142 kts 324°
2026-05-09 12:41 38.05425 20.55669 1546 ft 141 kts 324°
2026-05-09 12:41 38.06230 20.54956 1349 ft 141 kts 324°
2026-05-09 12:41 38.07031 20.54245 1145 ft 140 kts 324°
2026-05-09 12:41 38.07831 20.53536 945 ft 141 kts 324°
2026-05-09 12:42 38.08645 20.52832 730 ft 141 kts 326°
2026-05-09 12:42 38.09478 20.52172 536 ft 141 kts 326°
2026-05-09 12:42 38.10293 20.51480 313 ft 141 kts 324°
2026-05-09 12:42 38.11108 20.50798 117 ft 140 kts 325°
2026-05-09 12:43 38.11873 20.50155 54 ft 109 kts 326°
2026-05-09 12:43 38.12298 20.49799 53 ft 53 kts 327°
2026-05-09 12:43 38.12555 20.49582 53 ft 38 kts 325°
2026-05-09 12:43 38.12748 20.49418 51 ft 28 kts 326°
2026-05-09 12:44 38.12844 20.49353 50 ft 13 kts 355°
2026-05-09 12:44 38.12869 20.49309 49 ft 2 kts 198°
2026-05-09 12:44 38.12830 20.49346 50 ft 16 kts 146°
2026-05-09 12:44 38.12724 20.49434 51 ft 25 kts 147°
2026-05-09 12:45 38.12516 20.49612 54 ft 42 kts 147°
2026-05-09 12:45 38.12278 20.49814 55 ft 40 kts 145°
2026-05-09 12:45 38.12048 20.50008 54 ft 39 kts 146°
2026-05-09 12:45 38.11893 20.50184 52 ft 25 kts 101°
2026-05-09 12:46 38.11891 20.50295 56 ft 2 kts 108°
2026-05-09 12:46 38.11889 20.50303 55 ft 2 kts 110°
2026-05-09 12:46 38.11876 20.50319 50 ft 0 kts 143°
2026-05-09 12:46 38.11873 20.50321 50 ft 0 kts 144°
2026-05-09 12:48 38.11871 20.50329 52 ft 3 kts 118°
2026-05-09 12:48 38.11880 20.50359 53 ft 5 kts 56°
2026-05-09 12:48 38.11902 20.50401 56 ft 5 kts 57°
2026-05-09 12:48 38.11908 20.50412 56 ft 0 kts 57°
2026-05-09 12:49 38.11908 20.50413 56 ft 0 kts 57°